• în Republica Moldova
  • Lista ţărilor
  • Pe 7 zile
  • Temperatura apei
  • Hartă satelitară
  • Meteo pe hartă
  • Widget-uri
  • user-avatar
    Intrare

    Meteo pe oră la Solden

    Astăzi, 26 Mai, Vineri

    Timp Temperatura Precipitaţii Vânt Presiune Umiditate
    00:00 +2°C° 0 mm 1 m/s 583 mmHg 93%
    01:00 +2°C° 0 mm 1 m/s 583 mmHg 93%
    02:00 +1°C° 0 mm 1 m/s 583 mmHg 92%
    03:00 +1°C° 0 mm 1 m/s 582 mmHg 92%
    04:00 0°C° 0 mm 1 m/s 582 mmHg 91%
    05:00 +2°C° 0 mm 1 m/s 583 mmHg 84%
    06:00 +4°C° 0 mm 0 m/s 584 mmHg 77%
    07:00 +6°C° 0 mm 0 m/s 586 mmHg 69%
    08:00 +9°C° 0 mm 1 m/s 586 mmHg 62%
    09:00 +11°C° 0 mm 1 m/s 587 mmHg 55%
    10:00 +12°C° 0 mm 1 m/s 588 mmHg 48%
    11:00 +13°C° 0 mm 1 m/s 588 mmHg 46%
    12:00 +14°C° 0 mm 2 m/s 588 mmHg 44%
    13:00 +15°C° 0 mm 2 m/s 589 mmHg 41%
    14:00 +15°C° 0 mm 2 m/s 589 mmHg 43%
    15:00 +14°C° 0 mm 2 m/s 588 mmHg 44%
    16:00 +14°C° 0 mm 2 m/s 588 mmHg 46%
    17:00 +12°C° 0 mm 2 m/s 587 mmHg 56%
    18:00 +11°C° 0 mm 1 m/s 586 mmHg 67%
    19:00 +9°C° 0 mm 1 m/s 586 mmHg 78%
    20:00 +6°C° 0 mm 1 m/s 585 mmHg 83%
    21:00 +4°C° 0 mm 1 m/s 584 mmHg 89%
    22:00 0°C° 0 mm 0 m/s 583 mmHg 95%
    23:00 0°C° 0 mm 0 m/s 582 mmHg 94%

    Mâine, 27 Mai, Sâmbătă

    Timp Temperatura Precipitaţii Vânt Presiune Umiditate
    00:00 0°C° 0 mm 0 m/s 582 mmHg 94%
    01:00 -1°C° 0 mm 0 m/s 582 mmHg 94%
    02:00 -1°C° 0 mm 0 m/s 582 mmHg 93%
    03:00 -1°C° 0 mm 0 m/s 582 mmHg 93%
    04:00 -1°C° 0 mm 0 m/s 582 mmHg 92%
    05:00 +2°C° 0 mm 0 m/s 584 mmHg 82%
    06:00 +5°C° 0 mm 0 m/s 585 mmHg 72%
    07:00 +8°C° 0 mm 0 m/s 587 mmHg 61%
    08:00 +10°C° 0 mm 0 m/s 588 mmHg 54%
    09:00 +13°C° 0 mm 1 m/s 589 mmHg 47%
    10:00 +15°C° 0 mm 1 m/s 590 mmHg 40%
    11:00 +16°C° 0 mm 1 m/s 590 mmHg 39%
    12:00 +16°C° 0 mm 2 m/s 590 mmHg 39%
    13:00 +17°C° 0 mm 2 m/s 591 mmHg 39%
    14:00 +16°C° 0,1 mm 2 m/s 590 mmHg 43%
    15:00 +16°C° 0,1 mm 2 m/s 590 mmHg 47%
    16:00 +16°C° 0,1 mm 2 m/s 589 mmHg 51%
    17:00 +14°C° 0,3 mm 2 m/s 589 mmHg 62%
    18:00 +12°C° 0,3 mm 2 m/s 588 mmHg 73%
    19:00 +10°C° 0,3 mm 1 m/s 587 mmHg 84%
    20:00 +8°C° 0,1 mm 1 m/s 587 mmHg 88%
    21:00 +6°C° 0,1 mm 1 m/s 586 mmHg 93%
    22:00 +2°C° 0,1 mm 0 m/s 585 mmHg 97%
    23:00 +3°C° 0 mm 0 m/s 585 mmHg 97%

    Poimâine, 28 Mai, Duminică

    Timp Temperatura Precipitaţii Vânt Presiune Umiditate
    00:00 +3°C° 0 mm 0 m/s 585 mmHg 97%
    01:00 +3°C° 0 mm 0 m/s 586 mmHg 97%
    02:00 +4°C° 0 mm 1 m/s 586 mmHg 97%
    03:00 +4°C° 0 mm 1 m/s 586 mmHg 97%
    04:00 +4°C° 0 mm 1 m/s 586 mmHg 97%
    05:00 +5°C° 0 mm 0 m/s 587 mmHg 92%
    06:00 +7°C° 0 mm 0 m/s 588 mmHg 87%
    07:00 +9°C° 0 mm 0 m/s 589 mmHg 82%
    08:00 +11°C° 0 mm 0 m/s 590 mmHg 72%
    09:00 +14°C° 0 mm 1 m/s 591 mmHg 62%
    10:00 +15°C° 0 mm 1 m/s 591 mmHg 51%
    11:00 +16°C° 0 mm 1 m/s 592 mmHg 49%
    12:00 +18°C° 0 mm 1 m/s 592 mmHg 47%
    13:00 +17°C° 0 mm 2 m/s 592 mmHg 45%
    14:00 +17°C° 0,2 mm 2 m/s 591 mmHg 49%
    15:00 +16°C° 0,2 mm 2 m/s 591 mmHg 54%
    16:00 +16°C° 0,2 mm 2 m/s 591 mmHg 58%
    17:00 +14°C° 0,3 mm 2 m/s 590 mmHg 67%
    18:00 +13°C° 0,3 mm 1 m/s 589 mmHg 77%
    19:00 +11°C° 0,3 mm 1 m/s 589 mmHg 86%
    20:00 +9°C° 0,2 mm 1 m/s 588 mmHg 90%
    21:00 +7°C° 0,2 mm 1 m/s 587 mmHg 93%
    22:00 +4°C° 0,2 mm 0 m/s 586 mmHg 97%
    23:00 +4°C° 0 mm 0 m/s 586 mmHg 97%

    29 Mai, Luni

    Timp Temperatura Precipitaţii Vânt Presiune Umiditate
    00:00 +4°C° 0 mm 0 m/s 586 mmHg 97%
    01:00 +4°C° 0 mm 0 m/s 586 mmHg 97%
    02:00 +4°C° 0 mm 0 m/s 585 mmHg 97%
    03:00 +3°C° 0 mm 0 m/s 585 mmHg 97%
    04:00 +3°C° 0 mm 0 m/s 585 mmHg 97%
    05:00 +5°C° 0 mm 0 m/s 586 mmHg 92%
    06:00 +7°C° 0 mm 0 m/s 587 mmHg 87%
    07:00 +9°C° 0 mm 0 m/s 588 mmHg 82%
    08:00 +11°C° 0 mm 0 m/s 589 mmHg 72%
    09:00 +14°C° 0 mm 0 m/s 590 mmHg 62%
    10:00 +18°C° 0 mm 1 m/s 590 mmHg 52%
    11:00 +18°C° 0,1 mm 1 m/s 590 mmHg 50%
    12:00 +19°C° 0,1 mm 1 m/s 590 mmHg 47%
    13:00 +18°C° 0,1 mm 2 m/s 590 mmHg 45%
    14:00 +17°C° 0,3 mm 2 m/s 590 mmHg 50%
    15:00 +17°C° 0,3 mm 2 m/s 589 mmHg 54%
    16:00 +16°C° 0,3 mm 2 m/s 589 mmHg 59%
    17:00 +15°C° 0,4 mm 1 m/s 588 mmHg 68%
    18:00 +13°C° 0,4 mm 1 m/s 587 mmHg 78%
    19:00 +12°C° 0,4 mm 1 m/s 587 mmHg 87%
    20:00 +10°C° 0,4 mm 1 m/s 586 mmHg 91%
    21:00 +7°C° 0,4 mm 0 m/s 585 mmHg 94%
    22:00 +5°C° 0,4 mm 0 m/s 584 mmHg 97%
    23:00 +5°C° 0,1 mm 0 m/s 584 mmHg 97%

    30 Mai, Marţi

    Timp Temperatura Precipitaţii Vânt Presiune Umiditate
    00:00 +4°C° 0,1 mm 0 m/s 584 mmHg 97%
    01:00 +4°C° 0,1 mm 0 m/s 584 mmHg 97%
    02:00 +4°C° 0,1 mm 0 m/s 583 mmHg 97%
    03:00 +4°C° 0,1 mm 0 m/s 583 mmHg 97%
    04:00 +3°C° 0,1 mm 0 m/s 583 mmHg 97%
    05:00 +6°C° 0 mm 0 m/s 584 mmHg 92%
    06:00 +8°C° 0 mm 0 m/s 585 mmHg 88%
    07:00 +10°C° 0 mm 0 m/s 587 mmHg 83%
    08:00 +12°C° 0,1 mm 0 m/s 588 mmHg 76%
    09:00 +14°C° 0,1 mm 1 m/s 588 mmHg 69%
    10:00 +16°C° 0,1 mm 1 m/s 589 mmHg 61%
    11:00 +16°C° 0,6 mm 1 m/s 589 mmHg 62%
    12:00 +16°C° 0,6 mm 1 m/s 589 mmHg 62%
    13:00 +16°C° 0,6 mm 2 m/s 589 mmHg 63%
    14:00 +16°C° 1 mm 2 m/s 589 mmHg 66%
    15:00 +15°C° 1 mm 2 m/s 588 mmHg 70%
    16:00 +15°C° 1 mm 2 m/s 588 mmHg 73%
    17:00 +14°C° 0,9 mm 1 m/s 588 mmHg 79%
    18:00 +12°C° 0,9 mm 1 m/s 587 mmHg 85%
    19:00 +11°C° 0,9 mm 1 m/s 587 mmHg 91%
    20:00 +10°C° 0,5 mm 1 m/s 587 mmHg 93%
    21:00 +8°C° 0,5 mm 0 m/s 586 mmHg 95%
    22:00 +6°C° 0,5 mm 0 m/s 586 mmHg 97%
    23:00 +6°C° 0,1 mm 0 m/s 585 mmHg 97%

    31 Mai, Miercuri

    Timp Temperatura Precipitaţii Vânt Presiune Umiditate
    00:00 +5°C° 0,1 mm 0 m/s 585 mmHg 97%
    01:00 +5°C° 0,1 mm 0 m/s 585 mmHg 98%
    02:00 +4°C° 0 mm 0 m/s 585 mmHg 97%
    03:00 +4°C° 0 mm 0 m/s 585 mmHg 97%
    04:00 +4°C° 0 mm 0 m/s 585 mmHg 97%
    05:00 +6°C° 0 mm 0 m/s 586 mmHg 94%
    06:00 +8°C° 0 mm 0 m/s 587 mmHg 90%
    07:00 +10°C° 0 mm 0 m/s 588 mmHg 87%
    08:00 +12°C° 0,1 mm 1 m/s 588 mmHg 79%
    09:00 +14°C° 0,1 mm 1 m/s 589 mmHg 71%
    10:00 +15°C° 0,1 mm 1 m/s 590 mmHg 64%
    11:00 +16°C° 0,3 mm 1 m/s 590 mmHg 62%
    12:00 +16°C° 0,3 mm 1 m/s 590 mmHg 60%
    13:00 +18°C° 0,3 mm 1 m/s 590 mmHg 58%
    14:00 +16°C° 0,6 mm 2 m/s 589 mmHg 62%
    15:00 +16°C° 0,6 mm 2 m/s 589 mmHg 65%
    16:00 +15°C° 0,6 mm 2 m/s 589 mmHg 68%
    17:00 +14°C° 0,7 mm 1 m/s 588 mmHg 75%
    18:00 +13°C° 0,7 mm 1 m/s 588 mmHg 82%
    19:00 +11°C° 0,7 mm 1 m/s 587 mmHg 89%
    20:00 +10°C° 0,5 mm 1 m/s 587 mmHg 92%
    21:00 +8°C° 0,5 mm 1 m/s 586 mmHg 94%
    22:00 +6°C° 0,5 mm 0 m/s 585 mmHg 97%
    23:00 +6°C° 0,2 mm 0 m/s 585 mmHg 97%
    Arată mai mult